This is the latest recevied weather packets stored in our database for station/object HB9MZI. If no packets are shown the sender has not sent any weather packets the latest 10 day(s).
| Time | Temp. | Humidity | Pressure | Rain* | Wind** | Luminosity | Snow |
|---|---|---|---|---|---|---|---|
| 1788219242 | 25° C | 44% | 993.4 hPa | 0 mm | 2.24 m/s, 162° | - | - |
| 1788213496 | 26.11° C | 44% | 992.7 hPa | 0 mm | 2.68 m/s, 162° | - | - |
| 1788211985 | 26.11° C | 46% | 992.4 hPa | 0 mm | 2.24 m/s, 201° | - | - |
| 1788211682 | 26.11° C | 46% | 992.4 hPa | 0 mm | 2.68 m/s, 159° | - | - |
| 1788211077 | 26.11° C | 48% | 992.4 hPa | 0 mm | 0.45 m/s, 142° | - | - |
| 1788210774 | 25.56° C | 51% | 992.3 hPa | 0 mm | 0.89 m/s, 172° | - | - |
| 1788210169 | 25.56° C | 54% | 992.2 hPa | 0 mm | 0.45 m/s, 143° | - | - |
| 1788209263 | 25.56° C | 58% | 992.1 hPa | 0 mm | 0 m/s | - | - |
| 1788208959 | 25.56° C | 55% | 992.1 hPa | 0 mm | 0 m/s | - | - |
| 1788208657 | 25.56° C | 60% | 992.1 hPa | 0 mm | 0 m/s | - | - |
| 1788208354 | 26.11° C | 59% | 992.1 hPa | 0 mm | 0 m/s | - | - |
| 1788199889 | 27.78° C | 61% | 990.1 hPa | 0 mm | 0 m/s | - | - |
| 1788160261 | 21.67° C | 92% | 992.2 hPa | 0 mm | 0 m/s | - | - |
| 1788159656 | 21.67° C | 93% | 992.3 hPa | 0 mm | 0 m/s | - | - |
| 1788158749 | 21.11° C | 94% | 992.4 hPa | 0 mm | 0 m/s | - | - |
| 1788158447 | 20.56° C | 95% | 992.4 hPa | 0 mm | 0 m/s | - | - |
| 1788156632 | 20.56° C | 97% | 992.4 hPa | 0 mm | 0 m/s | - | - |
| 1788151491 | 21.11° C | 93% | 992.3 hPa | 0 mm | 0 m/s | - | - |
| 1788150282 | 21.67° C | 92% | 992.4 hPa | 0 mm | 0 m/s | - | - |
| 1788146651 | 22.22° C | 85% | 992.1 hPa | 0 mm | 0 m/s | - | - |
| 1788146350 | 22.22° C | 85% | 992 hPa | 0 mm | 0 m/s | - | - |
| 1788144534 | 22.22° C | 86% | 992.2 hPa | 0 mm | 0 m/s | - | - |
| 1788114589 | 26.11° C | 67% | 991 hPa | 0 mm | 0.45 m/s, 153° | - | - |
| 1788113078 | 26.11° C | 67% | 990.8 hPa | 0 mm | 0 m/s | - | - |
| 1788111565 | 26.67° C | 68% | 990.5 hPa | 0 mm | 0 m/s | - | - |
* Rain latest hour (hover to see other rain measurements)
** Current wind speed in m/s (hover to see current wind gust speed)